Temperature
10 9 9 8 8 8 8 8 8 8 8 7 7 7 6 6 6 6 6 6 6 6 6 6 6 6 6 6 6 6 6 7 9 10 10 11 11 12 12 13 13 14 13
10 10 9 9 8 8 8 8 8 8 7 7 6 6 6 5 5 5 5 5 5 5 5 5 5 5 5 5 5 6 6 7 9 9 10 10 10 10 11 11 12 13 13
10 10 9 9 9 9 8 8 8 7 7 7 6 6 5 5 5 4 4 4 4 4 4 5 5 5 5 5 5 5 5 6 9 9 9 9 9 9 9 9 10 11 12
10 10 9 9 9 9 8 8 8 7 7 6 6 5 5 5 4 4 4 4 3 3 3 4 4 4 5 5 5 5 6 7 9 9 9 8 8 8 7 7 8 9 10
10 9 9 9 9 9 8 8 7 7 6 6 6 5 5 4 4 4 3 3 3 3 3 3 3 4 4 5 5 6 6 7 9 8 8 8 8 7 6 5 6 6 7
10 9 9 9 9 8 8 8 7 7 6 6 6 6 5 4 4 3 3 3 2 2 3 3 3 4 5 5 5 5 6 7 7 7 7 7 7 6 5 4 4 4 5
9 9 9 8 8 8 8 8 7 7 6 6 6 6 5 4 4 4 3 2 2 3 3 3 4 4 4 4 4 4 4 5 6 6 6 6 6 5 4 3 3 3 3
9 9 9 8 8 8 8 7 7 7 6 6 6 6 5 5 4 4 3 3 3 3 3 4 4 4 4 4 3 3 3 4 4 4 5 5 5 4 3 2 2 2 2
9 9 9 8 8 8 8 7 7 7 6 6 6 6 5 5 4 4 4 3 3 4 3 3 3 3 3 3 3 2 3 3 3 3 3 3 3 3 3 2 1 1 1
8 8 8 8 8 8 7 7 7 7 7 6 6 5 5 5 4 4 4 4 4 4 3 3 3 3 3 2 2 2 2 1 1 1 2 2 2 1 1 1 1 1 0
8 8 8 8 8 8 7 7 7 7 6 6 6 5 5 4 4 4 4 4 3 3 3 3 3 2 2 1 1 1 0 -0 -0 -0 -0 0 -0 -1 -1 -1 -1 -1 -1
10 9 8 8 8 7 7 7 7 6 6 6 5 5 5 4 4 4 3 3 3 3 3 2 2 1 1 0 -0 -1 -1 -2 -2 -2 -2 -2 -2 -3 -3 -3 -3 -3 -2
11 9 9 8 8 7 7 7 7 6 6 6 5 5 5 4 4 4 3 3 3 2 2 1 1 0 -0 -1 -1 -2 -3 -3 -4 -4 -4 -4 -4 -4 -4 -4 -4 -4 -4
11 10 9 8 8 7 7 7 6 6 6 6 6 5 5 4 4 3 3 3 2 2 1 1 -0 -1 -2 -2 -3 -3 -4 -5 -5 -5 -5 -5 -6 -6 -6 -5 -5 -5 -5
11 10 9 8 8 7 7 7 6 6 6 6 5 5 4 4 3 3 2 2 1 1 0 -1 -1 -2 -3 -4 -4 -5 -5 -6 -6 -6 -6 -6 -7 -7 -7 -7 -6 -6 -6
11 10 9 8 8 7 7 7 6 6 6 5 5 5 4 4 3 2 2 1 0 -0 -1 -1 -2 -3 -4 -5 -5 -5 -6 -6 -6 -6 -7 -7 -7 -7 -7 -8 -7 -7 -6
12 11 10 9 8 7 7 6 6 6 5 5 5 4 4 3 2 2 1 0 -0 -1 -2 -2 -3 -4 -4 -5 -5 -6 -6 -6 -6 -7 -7 -7 -7 -7 -7 -8 -8 -8 -7
12 11 10 9 8 8 7 6 6 6 5 5 5 4 4 3 2 1 1 0 -1 -1 -2 -3 -3 -4 -5 -6 -6 -6 -6 -6 -6 -7 -7 -7 -8 -8 -8 -8 -8 -8 -8
12 11 10 9 9 8 7 6 6 5 5 5 4 4 3 3 2 1 1 -0 -1 -2 -2 -3 -4 -4 -5 -6 -6 -6 -6 -6 -6 -7 -7 -8 -8 -8 -8 -8 -8 -9 -9
12 11 10 9 9 8 7 6 5 5 5 5 4 4 3 3 2 1 1 -0 -1 -2 -3 -3 -4 -4 -5 -6 -7 -6 -6 -5 -6 -7 -7 -8 -8 -8 -8 -9 -9 -8 -9
12 11 11 10 9 8 7 7 6 6 6 5 4 4 3 3 2 1 1 -0 -1 -2 -3 -4 -4 -4 -5 -6 -7 -7 -6 -6 -6 -7 -8 -8 -8 -8 -9 -9 -9 -9 -9
13 13 12 11 10 10 9 8 7 6 5 4 4 3 3 3 2 1 1 -0 -1 -2 -2 -4 -4 -5 -5 -6 -8 -9 -9 -8 -8 -8 -8 -8 -8 -8 -9 -9 -9 -9 -9
15 15 14 14 12 11 10 8 6 5 5 4 4 4 3 3 2 1 1 -0 -1 -2 -2 -3 -4 -5 -6 -6 -8 -9 -10 -11 -11 -9 -8 -9 -9 -9 -9 -9 -9 -10 -10
17 16 15 15 14 12 10 9 8 7 7 6 5 4 3 2 2 1 0 -0 -1 -2 -2 -3 -4 -5 -6 -6 -7 -8 -9 -11 -12 -11 -10 -9 -10 -10 -9 -10 -10 -10 -10
18 17 16 15 14 13 12 10 9 8 7 6 4 3 3 2 2 1 0 -0 -1 -2 -3 -3 -4 -5 -6 -7 -8 -8 -9 -10 -10 -12 -12 -10 -10 -10 -10 -10 -10 -10 -10
18 17 17 16 15 14 13 11 10 9 7 6 5 4 3 3 2 1 0 -0 -1 -2 -3 -3 -4 -5 -6 -7 -8 -8 -9 -10 -10 -11 -12 -11 -11 -11 -11 -11 -11 -10 -10
Wind_Speed
4 5 6 8 8 8 9 9 11 12 13 14 15 16 17 18 20 21 21 22 23 24 25 25 26 27 28 28 29 29 29 29 29 29 30 31 31 30 31 31 30 26 29
9 7 9 9 8 8 8 9 10 11 12 13 14 15 16 17 18 19 20 21 22 23 24 25 26 26 27 28 28 28 28 28 29 29 28 28 29 29 30 30 30 27 29
10 8 9 10 9 8 8 8 9 10 11 12 13 14 15 16 17 18 19 20 21 22 23 24 25 26 26 27 27 28 28 28 28 28 26 24 26 27 29 29 29 29 29
12 11 9 11 10 8 8 8 8 9 10 11 12 13 14 15 16 17 18 19 19 20 21 22 23 25 25 26 27 28 28 27 28 26 22 23 24 25 28 28 29 29 29
12 12 9 12 10 9 8 7 7 8 9 10 12 13 13 14 15 15 16 17 18 19 20 21 22 24 25 26 27 27 28 27 27 24 22 22 23 25 28 28 28 28 29
11 11 9 12 10 9 7 7 7 7 8 10 11 11 12 13 14 14 15 16 17 18 19 20 22 23 24 25 26 27 28 28 26 23 22 22 22 26 28 28 28 28 28
11 10 7 12 11 9 7 7 6 7 8 9 10 11 11 12 12 13 14 15 16 17 18 20 21 22 24 24 25 25 26 27 25 23 22 22 23 28 29 28 28 28 28
13 10 6 12 11 9 8 7 6 6 7 8 9 10 10 10 11 12 13 14 15 16 18 19 21 22 22 23 23 24 24 24 24 23 23 23 26 29 29 29 29 29 29
13 11 7 7 9 9 7 7 7 7 7 7 8 9 9 10 11 11 12 13 14 15 17 18 19 20 21 21 22 22 22 23 22 20 20 21 26 29 29 29 29 29 29
10 10 9 9 10 9 7 8 8 7 7 7 7 8 9 9 10 11 12 13 13 15 16 17 18 19 19 20 20 20 20 20 20 19 18 20 26 28 29 29 30 30 30
8 8 11 11 11 11 10 8 8 8 8 8 7 8 9 9 9 10 11 12 13 14 15 16 17 17 17 18 19 19 18 18 19 17 17 22 26 27 28 28 29 30 30
11 8 12 14 14 14 11 10 10 9 9 9 9 9 9 8 8 8 10 11 12 13 14 15 16 16 16 17 18 17 17 19 17 17 17 23 25 26 27 28 28 29 30
11 10 11 15 16 15 13 13 12 11 11 10 10 9 8 7 6 7 9 10 11 12 14 14 15 15 15 15 15 16 17 17 17 16 18 22 24 25 26 27 28 29 30
10 11 10 17 16 17 16 14 14 14 13 12 11 11 9 7 5 5 6 7 9 10 10 11 11 12 12 13 14 15 16 16 17 16 17 20 23 24 25 27 28 29 30
15 15 12 17 17 17 16 15 14 15 15 14 13 12 11 9 6 4 3 4 5 5 6 7 8 10 10 12 13 13 16 18 18 17 16 20 21 22 24 26 28 29 31
18 17 14 15 19 18 16 15 15 17 16 15 15 15 13 10 8 6 3 1 2 3 5 6 8 9 10 12 13 15 17 18 17 18 18 18 19 21 22 24 27 29 31
17 17 16 15 19 18 17 17 16 18 17 16 16 16 15 13 11 9 6 5 6 6 7 8 10 9 9 9 10 14 15 16 16 18 18 17 17 18 21 24 26 28 30
15 15 17 16 16 17 17 17 16 18 18 17 17 17 17 15 13 11 9 8 9 8 8 8 8 4 5 5 6 10 13 14 16 18 17 17 17 16 19 23 25 28 30
17 17 18 16 16 17 18 17 17 17 17 18 18 18 18 17 16 14 12 11 10 9 9 8 5 4 5 6 7 7 9 11 14 16 15 16 16 17 18 20 24 27 30
15 16 17 18 15 14 13 10 9 10 13 16 17 18 19 18 18 16 13 13 11 8 6 6 5 5 5 6 8 9 8 11 13 12 12 13 15 17 18 19 21 23 28
15 17 18 19 16 13 8 7 6 7 6 7 15 19 20 19 19 17 13 12 11 7 6 6 4 5 5 4 4 6 8 9 9 7 10 10 13 16 18 19 20 21 23
19 19 19 21 19 17 14 9 5 5 5 7 13 17 20 20 19 16 15 11 11 7 6 6 5 3 4 3 3 4 5 4 4 8 7 7 9 14 15 19 20 22 23
20 23 21 22 21 19 15 8 4 3 2 5 7 8 17 20 20 18 16 14 12 9 7 7 7 6 5 4 4 3 3 5 7 5 7 8 8 7 11 17 20 22 23
23 19 20 20 20 19 18 16 14 13 12 12 8 9 13 19 19 19 18 16 13 11 7 7 7 6 6 5 4 5 7 6 5 7 5 5 8 10 10 14 18 21 24
17 16 18 18 19 20 20 22 20 17 12 6 6 9 10 12 17 18 18 16 13 11 10 9 6 7 6 6 5 5 7 7 8 8 14 13 8 7 9 9 14 19 23
12 14 16 18 20 20 21 21 22 20 14 10 10 11 10 8 9 15 16 16 14 12 11 10 9 8 8 8 8 7 6 7 7 8 11 17 18 12 9 8 10 15 21
Wind_Direction
194 182 147 124 108 92 78 67 58 52 46 42 39 38 38 36 34 32 31 30 29 29 29 28 28 28 27 27 26 25 26 28 28 23 17 10 5 4 5 5 3 359 358
160 157 143 130 116 100 85 72 63 56 50 45 41 40 39 37 35 32 31 30 29 28 27 27 27 27 26 25 24 23 25 29 25 21 16 9 2 0 2 2 0 357 356
140 134 134 133 122 109 94 79 68 61 55 49 45 43 40 38 37 33 32 31 30 28 27 26 25 25 25 23 22 22 23 28 23 19 14 7 359 357 359 359 357 356 353
140 134 136 138 129 118 104 88 74 66 59 53 48 45 41 39 38 34 32 31 29 28 27 26 25 24 23 22 20 20 22 26 22 18 13 4 356 354 358 357 355 353 351
144 143 155 142 136 125 113 98 83 72 65 58 53 47 43 41 39 34 32 30 29 27 26 26 25 24 22 20 19 19 19 22 20 16 9 1 352 352 356 355 353 350 347
150 153 168 149 143 135 125 111 93 80 72 64 58 51 45 42 41 34 32 31 28 27 26 25 24 24 22 19 17 17 17 18 18 11 5 358 347 349 352 352 350 347 344
158 160 173 158 154 146 136 123 107 92 81 71 65 57 48 44 42 35 32 31 29 28 26 25 24 22 21 18 16 15 15 15 13 5 359 353 343 349 349 349 347 344 341
160 162 170 171 163 158 149 140 125 108 95 83 76 66 54 47 43 37 32 32 30 29 27 25 24 22 20 17 14 14 14 14 9 1 354 347 343 346 346 346 344 341 338
164 161 155 140 153 158 156 153 140 125 111 98 89 78 63 53 45 40 32 33 32 31 28 26 23 21 19 15 12 11 11 9 6 358 351 341 339 341 342 341 340 338 335
171 170 164 150 148 147 148 157 150 139 127 114 103 93 77 64 51 40 32 32 33 32 29 26 23 19 17 12 8 6 6 4 359 352 344 335 337 337 337 336 336 334 331
189 186 177 169 167 165 158 155 152 145 138 125 115 107 96 86 66 43 34 34 33 32 28 25 21 18 15 10 4 1 1 355 351 344 337 331 333 332 332 331 331 330 328
195 196 191 183 178 174 167 161 155 149 145 141 137 130 115 99 81 57 42 36 34 33 28 23 19 16 12 6 359 355 349 344 343 337 331 329 328 328 327 327 326 326 324
193 194 192 191 185 181 174 170 169 166 162 161 158 151 137 118 94 72 56 44 39 33 29 20 16 10 3 354 345 338 333 332 327 324 322 324 325 324 324 323 323 322 321
190 199 192 192 189 188 183 181 180 178 177 176 174 169 158 143 124 91 62 43 35 27 19 10 0 351 343 335 326 317 314 313 311 310 313 320 321 321 320 320 320 319 318
198 201 197 192 192 190 187 186 189 189 188 187 183 183 177 164 154 132 87 46 25 9 355 341 331 324 317 312 307 301 300 301 299 299 301 312 317 319 319 319 318 317 316
204 203 197 195 196 191 190 193 193 195 194 191 191 191 188 180 170 163 159 178 295 294 290 292 292 292 289 289 287 288 290 291 289 293 296 302 311 316 318 317 316 315 313
203 201 198 198 196 194 196 198 198 198 196 195 197 196 194 190 184 181 186 212 240 255 262 271 278 278 273 276 276 281 281 279 282 288 292 292 295 308 315 316 314 312 311
199 198 200 201 197 199 199 199 197 198 198 200 200 198 199 198 194 190 197 217 234 242 249 256 262 260 262 268 270 275 275 274 279 284 286 286 291 296 304 311 312 312 311
201 198 199 201 195 198 199 198 197 198 201 203 201 200 202 202 200 198 205 220 229 231 239 250 252 235 259 270 272 267 262 265 274 280 280 284 287 291 294 302 308 310 309
201 200 201 202 199 192 190 188 192 199 206 205 202 202 203 203 203 202 208 220 223 221 231 237 248 247 245 261 280 280 269 265 266 265 269 279 284 289 294 294 296 300 304
200 202 203 202 198 187 182 186 189 205 203 203 207 206 204 204 203 201 205 213 215 213 221 224 235 260 261 251 273 282 271 257 250 251 257 266 275 282 287 290 292 293 296
205 205 205 205 200 197 198 186 176 174 192 203 204 206 206 204 203 203 205 208 212 213 221 223 215 236 258 259 268 307 313 297 255 249 248 259 267 275 282 289 290 291 290
209 208 207 206 203 200 191 171 149 137 147 180 200 205 205 202 202 203 205 208 211 209 218 222 213 219 244 252 208 232 287 295 309 261 238 251 256 261 273 282 285 287 290
214 209 207 204 203 198 189 190 189 197 203 201 194 195 196 199 201 204 207 209 211 213 216 224 220 214 223 251 236 221 224 239 283 302 277 249 251 265 268 282 285 286 286
212 205 205 202 203 199 196 199 202 209 207 179 177 185 193 198 202 204 207 209 212 216 219 222 223 220 220 235 237 232 239 246 238 261 291 295 280 256 260 265 276 280 283
202 200 199 201 206 201 200 203 206 209 196 181 187 192 196 198 203 207 208 209 213 217 221 224 225 227 230 235 242 238 238 243 249 252 274 291 295 287 263 263 270 275 278
Height
1590 1592 1593 1594 1594 1594 1594 1593 1593 1592 1590 1589 1588 1587 1586 1584 1583 1581 1579 1577 1576 1574 1573 1571 1569 1568 1566 1564 1563 1561 1559 1557 1555 1555 1555 1556 1556 1555 1555 1554 1554 1554 1554
1589 1591 1592 1593 1594 1594 1594 1593 1592 1591 1590 1589 1588 1587 1586 1584 1583 1581 1579 1578 1576 1574 1572 1571 1569 1567 1565 1563 1562 1560 1558 1555 1554 1554 1553 1553 1554 1553 1553 1553 1552 1552 1552
1588 1590 1591 1592 1593 1593 1593 1593 1592 1591 1590 1589 1588 1587 1586 1584 1582 1581 1579 1577 1576 1574 1572 1570 1568 1566 1564 1562 1561 1559 1557 1553 1552 1552 1551 1551 1551 1551 1550 1550 1550 1550 1550
1587 1589 1591 1592 1592 1593 1593 1592 1592 1591 1590 1589 1588 1586 1585 1584 1582 1580 1579 1577 1575 1574 1572 1570 1568 1566 1564 1562 1560 1558 1556 1552 1551 1550 1549 1548 1548 1548 1548 1547 1547 1547 1547
1586 1588 1590 1591 1591 1592 1592 1591 1591 1590 1589 1588 1587 1585 1584 1583 1581 1580 1578 1577 1575 1573 1571 1570 1568 1566 1564 1562 1560 1558 1556 1553 1551 1550 1548 1547 1546 1545 1545 1545 1544 1544 1543
1585 1587 1588 1590 1590 1591 1591 1591 1590 1590 1589 1587 1586 1584 1583 1582 1580 1579 1577 1576 1574 1573 1571 1569 1567 1565 1564 1562 1560 1558 1556 1554 1552 1550 1548 1546 1545 1543 1543 1541 1541 1540 1540
1583 1585 1587 1588 1589 1589 1590 1590 1589 1589 1587 1586 1585 1583 1582 1581 1579 1577 1576 1574 1573 1571 1570 1568 1567 1565 1563 1562 1560 1558 1555 1553 1552 1550 1548 1546 1543 1542 1541 1539 1538 1537 1536
1582 1584 1585 1587 1587 1588 1588 1588 1588 1587 1586 1584 1583 1582 1580 1579 1577 1576 1575 1573 1572 1570 1569 1568 1566 1564 1563 1561 1559 1557 1554 1552 1551 1549 1548 1545 1543 1541 1539 1537 1535 1533 1532
1580 1582 1584 1584 1585 1586 1586 1586 1586 1585 1584 1583 1581 1580 1579 1577 1576 1575 1573 1572 1571 1569 1568 1566 1565 1563 1561 1560 1558 1555 1553 1551 1549 1547 1545 1543 1541 1539 1537 1534 1532 1530 1528
1577 1579 1581 1582 1583 1584 1584 1584 1584 1583 1582 1581 1579 1578 1577 1576 1575 1573 1572 1571 1569 1568 1566 1565 1563 1562 1560 1558 1556 1553 1551 1549 1547 1545 1542 1540 1538 1536 1534 1531 1529 1527 1525
1573 1575 1577 1579 1580 1581 1582 1582 1582 1581 1580 1579 1578 1576 1575 1574 1573 1572 1570 1569 1567 1566 1565 1563 1561 1559 1557 1556 1553 1551 1548 1546 1543 1541 1539 1536 1534 1532 1530 1528 1525 1523 1521
1568 1571 1573 1576 1577 1578 1579 1579 1579 1579 1578 1577 1576 1574 1573 1572 1571 1570 1568 1567 1565 1564 1562 1560 1558 1556 1554 1552 1550 1547 1545 1542 1539 1536 1534 1532 1530 1527 1526 1524 1521 1519 1516
1565 1568 1570 1572 1574 1575 1576 1576 1576 1576 1575 1575 1573 1572 1571 1570 1568 1567 1566 1565 1563 1562 1560 1558 1555 1553 1550 1548 1545 1543 1540 1537 1534 1531 1528 1526 1524 1522 1521 1519 1516 1514 1512
1561 1563 1566 1568 1570 1571 1572 1573 1573 1573 1572 1572 1571 1570 1568 1567 1566 1565 1563 1562 1561 1559 1556 1554 1551 1548 1545 1543 1540 1537 1535 1531 1528 1525 1523 1520 1518 1516 1515 1513 1511 1509 1506
1556 1559 1561 1563 1565 1566 1567 1568 1569 1569 1569 1568 1568 1566 1565 1564 1563 1562 1560 1558 1556 1554 1552 1549 1546 1543 1540 1538 1535 1532 1529 1526 1523 1520 1517 1515 1513 1510 1509 1507 1505 1503 1501
1550 1553 1556 1558 1560 1561 1563 1564 1564 1565 1565 1564 1564 1563 1562 1561 1559 1558 1556 1554 1552 1549 1546 1544 1541 1538 1535 1532 1530 1527 1524 1522 1519 1516 1512 1510 1507 1505 1503 1501 1500 1498 1496
1545 1548 1550 1552 1555 1556 1557 1558 1559 1560 1560 1560 1559 1558 1557 1556 1555 1553 1551 1549 1547 1544 1541 1539 1536 1533 1530 1527 1525 1522 1519 1516 1513 1510 1507 1504 1502 1499 1497 1495 1494 1492 1490
1540 1542 1545 1547 1548 1550 1552 1553 1554 1554 1554 1555 1554 1554 1552 1551 1550 1548 1546 1544 1541 1539 1537 1534 1532 1529 1526 1523 1520 1517 1514 1510 1507 1504 1501 1499 1496 1494 1492 1489 1487 1486 1483
1534 1536 1538 1540 1541 1544 1546 1547 1548 1548 1549 1549 1549 1548 1547 1546 1544 1543 1541 1539 1537 1534 1532 1530 1527 1524 1521 1518 1515 1511 1508 1505 1501 1498 1496 1493 1491 1489 1486 1484 1481 1478 1475
1527 1529 1531 1533 1535 1537 1540 1541 1541 1541 1542 1542 1542 1542 1541 1540 1539 1537 1536 1534 1532 1530 1528 1525 1523 1520 1517 1513 1509 1505 1502 1498 1495 1492 1490 1488 1486 1484 1481 1478 1474 1471 1467
1520 1521 1523 1525 1526 1529 1530 1531 1532 1532 1534 1536 1536 1536 1535 1534 1533 1532 1530 1529 1527 1525 1523 1521 1518 1516 1513 1509 1503 1497 1493 1490 1488 1485 1484 1482 1480 1478 1475 1471 1468 1464 1459
1511 1513 1515 1516 1518 1520 1521 1523 1525 1526 1527 1529 1529 1529 1529 1528 1527 1526 1525 1523 1521 1519 1518 1515 1513 1510 1508 1505 1500 1492 1486 1482 1479 1479 1477 1475 1473 1471 1468 1464 1460 1456 1452
1503 1504 1506 1508 1510 1512 1514 1516 1517 1518 1518 1520 1520 1521 1522 1521 1520 1520 1519 1517 1516 1514 1512 1510 1508 1505 1503 1501 1498 1495 1488 1480 1475 1469 1468 1466 1465 1463 1460 1456 1452 1448 1444
1496 1498 1500 1501 1503 1504 1505 1506 1506 1506 1506 1509 1513 1514 1514 1514 1513 1513 1512 1511 1509 1508 1506 1505 1503 1500 1497 1495 1493 1490 1488 1483 1476 1466 1460 1459 1457 1454 1451 1448 1444 1440 1436
1490 1491 1493 1494 1494 1495 1496 1496 1497 1497 1499 1503 1505 1506 1506 1506 1506 1505 1505 1504 1503 1501 1500 1498 1497 1495 1492 1489 1487 1484 1482 1479 1474 1469 1457 1450 1448 1446 1443 1439 1435 1431 1427
1483 1484 1485 1485 1485 1486 1486 1486 1487 1488 1490 1493 1495 1497 1498 1499 1498 1498 1497 1497 1496 1495 1493 1492 1490 1488 1486 1484 1481 1478 1476 1473 1468 1464 1456 1445 1438 1434 1433 1430 1426 1422 1418